• In Schweiz
  • Länderverzeichnis
  • Für 7 Tage
  • Wassertemperatur
  • Satellitenkarten
  • Wetterkarte
  • Widgets
  • user-avatar
    Anmelden

    Stündliche Wetter Leicester

    Heute, 25 Februar, Sonntag

    Zeit Temperatur Niederschläge Wind Luftdruck Luftfeuchtigkeit
    00:00 -3°C° 0 mm 4 m/S 763 mmHg 81%
    01:00 -3°C° 0 mm 4 m/S 763 mmHg 80%
    02:00 -3°C° 0 mm 4 m/S 763 mmHg 78%
    03:00 -3°C° 0 mm 4 m/S 763 mmHg 77%
    04:00 -3°C° 0 mm 4 m/S 764 mmHg 76%
    05:00 -3°C° 0 mm 4 m/S 764 mmHg 75%
    06:00 -3°C° 0 mm 4 m/S 764 mmHg 73%
    07:00 -4°C° 0 mm 5 m/S 764 mmHg 69%
    08:00 -2°C° 0 mm 5 m/S 765 mmHg 65%
    09:00 -2°C° 0 mm 6 m/S 765 mmHg 60%
    10:00 -1°C° 0 mm 5 m/S 765 mmHg 56%
    11:00 0°C° 0 mm 5 m/S 765 mmHg 53%
    12:00 +1°C° 0 mm 5 m/S 765 mmHg 49%
    13:00 +2°C° 0 mm 5 m/S 765 mmHg 49%
    14:00 +2°C° 0 mm 5 m/S 765 mmHg 49%
    15:00 +2°C° 0 mm 5 m/S 765 mmHg 50%
    16:00 +1°C° 0 mm 5 m/S 765 mmHg 54%
    17:00 -1°C° 0 mm 5 m/S 765 mmHg 59%
    18:00 -2°C° 0 mm 4 m/S 765 mmHg 63%
    19:00 -3°C° 0 mm 4 m/S 766 mmHg 64%
    20:00 -3°C° 0 mm 4 m/S 766 mmHg 65%
    21:00 -4°C° 0 mm 4 m/S 767 mmHg 66%
    22:00 -4°C° 0 mm 4 m/S 767 mmHg 66%
    23:00 -4°C° 0 mm 4 m/S 767 mmHg 65%

    Morgen, 26 Februar, Montag

    Zeit Temperatur Niederschläge Wind Luftdruck Luftfeuchtigkeit
    00:00 -4°C° 0 mm 4 m/S 767 mmHg 65%
    01:00 -4°C° 0 mm 4 m/S 767 mmHg 67%
    02:00 -4°C° 0 mm 3 m/S 767 mmHg 69%
    03:00 -4°C° 0 mm 3 m/S 767 mmHg 72%
    04:00 -4°C° 0 mm 3 m/S 767 mmHg 74%
    05:00 -4°C° 0 mm 3 m/S 768 mmHg 75%
    06:00 -4°C° 0 mm 3 m/S 768 mmHg 77%
    07:00 -3°C° 0 mm 4 m/S 768 mmHg 72%
    08:00 -4°C° 0 mm 5 m/S 768 mmHg 66%
    09:00 -3°C° 0 mm 6 m/S 768 mmHg 60%
    10:00 -2°C° 0 mm 6 m/S 768 mmHg 57%
    11:00 -2°C° 0 mm 6 m/S 768 mmHg 54%
    12:00 -1°C° 0 mm 6 m/S 768 mmHg 50%
    13:00 -1°C° 0 mm 6 m/S 768 mmHg 51%
    14:00 -1°C° 0 mm 6 m/S 768 mmHg 51%
    15:00 -1°C° 0 mm 6 m/S 767 mmHg 51%
    16:00 -2°C° 0 mm 6 m/S 767 mmHg 56%
    17:00 -2°C° 0 mm 5 m/S 767 mmHg 61%
    18:00 -3°C° 0 mm 4 m/S 767 mmHg 66%
    19:00 -4°C° 0 mm 4 m/S 768 mmHg 68%
    20:00 -4°C° 0 mm 4 m/S 768 mmHg 71%
    21:00 -4°C° 0 mm 4 m/S 768 mmHg 74%
    22:00 -4°C° 0 mm 4 m/S 767 mmHg 75%
    23:00 -4°C° 0 mm 4 m/S 767 mmHg 76%

    übermorgen, 27 Februar, Dienstag

    Zeit Temperatur Niederschläge Wind Luftdruck Luftfeuchtigkeit
    00:00 -4°C° 0 mm 3 m/S 767 mmHg 77%
    01:00 -4°C° 0,1 mm 3 m/S 766 mmHg 79%
    02:00 -4°C° 0,1 mm 3 m/S 766 mmHg 80%
    03:00 -3°C° 0,1 mm 2 m/S 765 mmHg 82%
    04:00 -3°C° 0,5 mm 2 m/S 764 mmHg 85%
    05:00 -3°C° 0,5 mm 2 m/S 764 mmHg 88%
    06:00 -3°C° 0,5 mm 2 m/S 763 mmHg 92%
    07:00 -3°C° 0,2 mm 2 m/S 763 mmHg 89%
    08:00 -2°C° 0,2 mm 3 m/S 763 mmHg 86%
    09:00 -3°C° 0,2 mm 4 m/S 763 mmHg 83%
    10:00 -3°C° 0,1 mm 4 m/S 763 mmHg 77%
    11:00 -2°C° 0,1 mm 5 m/S 763 mmHg 71%
    12:00 -1°C° 0,1 mm 5 m/S 763 mmHg 65%
    13:00 -1°C° 0,2 mm 5 m/S 762 mmHg 65%
    14:00 -2°C° 0,2 mm 5 m/S 762 mmHg 65%
    15:00 -3°C° 0,2 mm 6 m/S 761 mmHg 65%
    16:00 -4°C° 0,1 mm 5 m/S 761 mmHg 71%
    17:00 -4°C° 0,1 mm 4 m/S 761 mmHg 77%
    18:00 -5°C° 0,1 mm 4 m/S 761 mmHg 83%
    19:00 -5°C° 0,1 mm 4 m/S 761 mmHg 85%
    20:00 -5°C° 0,1 mm 4 m/S 761 mmHg 87%
    21:00 -5°C° 0,1 mm 4 m/S 761 mmHg 89%
    22:00 -5°C° 0,1 mm 4 m/S 760 mmHg 89%
    23:00 -5°C° 0,1 mm 4 m/S 760 mmHg 89%

    28 Februar, Mittwoch

    Zeit Temperatur Niederschläge Wind Luftdruck Luftfeuchtigkeit
    00:00 -5°C° 0,1 mm 4 m/S 760 mmHg 89%
    01:00 -7°C° 0,1 mm 4 m/S 760 mmHg 89%
    02:00 -7°C° 0,1 mm 4 m/S 759 mmHg 89%
    03:00 -7°C° 0,1 mm 4 m/S 759 mmHg 89%
    04:00 -7°C° 0 mm 4 m/S 759 mmHg 88%
    05:00 -8°C° 0 mm 4 m/S 758 mmHg 88%
    06:00 -8°C° 0 mm 4 m/S 758 mmHg 87%
    07:00 -7°C° 0 mm 4 m/S 758 mmHg 86%
    08:00 -7°C° 0 mm 4 m/S 758 mmHg 86%
    09:00 -5°C° 0 mm 4 m/S 758 mmHg 85%
    10:00 -6°C° 0,1 mm 5 m/S 758 mmHg 78%
    11:00 -5°C° 0,1 mm 5 m/S 758 mmHg 72%
    12:00 -4°C° 0,1 mm 6 m/S 758 mmHg 66%
    13:00 -4°C° 0,2 mm 6 m/S 758 mmHg 68%
    14:00 -6°C° 0,2 mm 7 m/S 758 mmHg 71%
    15:00 -6°C° 0,2 mm 8 m/S 757 mmHg 73%
    16:00 -7°C° 0 mm 7 m/S 757 mmHg 75%
    17:00 -8°C° 0 mm 6 m/S 757 mmHg 78%
    18:00 -10°C° 0 mm 5 m/S 757 mmHg 80%
    19:00 -10°C° 0 mm 6 m/S 757 mmHg 81%
    20:00 -10°C° 0 mm 6 m/S 757 mmHg 81%
    21:00 -10°C° 0 mm 6 m/S 757 mmHg 82%
    22:00 -9°C° 0 mm 6 m/S 756 mmHg 82%
    23:00 -9°C° 0 mm 6 m/S 755 mmHg 82%

    1 März, Donnerstag

    Zeit Temperatur Niederschläge Wind Luftdruck Luftfeuchtigkeit
    00:00 -9°C° 0 mm 6 m/S 755 mmHg 81%
    01:00 -9°C° 0 mm 7 m/S 754 mmHg 81%
    02:00 -9°C° 0 mm 7 m/S 754 mmHg 82%
    03:00 -9°C° 0 mm 7 m/S 753 mmHg 82%
    04:00 -10°C° 0 mm 8 m/S 753 mmHg 81%
    05:00 -10°C° 0 mm 8 m/S 752 mmHg 80%
    06:00 -10°C° 0 mm 8 m/S 752 mmHg 80%
    07:00 -9°C° 0 mm 9 m/S 752 mmHg 78%
    08:00 -9°C° 0 mm 9 m/S 751 mmHg 77%
    09:00 -9°C° 0 mm 10 m/S 751 mmHg 76%
    10:00 -8°C° 0 mm 10 m/S 751 mmHg 74%
    11:00 -8°C° 0 mm 10 m/S 750 mmHg 73%
    12:00 -7°C° 0 mm 10 m/S 750 mmHg 72%
    13:00 -7°C° 0 mm 10 m/S 749 mmHg 72%
    14:00 -7°C° 0 mm 10 m/S 749 mmHg 73%
    15:00 -7°C° 0 mm 10 m/S 749 mmHg 73%
    16:00 -7°C° 0 mm 10 m/S 748 mmHg 75%
    17:00 -8°C° 0 mm 10 m/S 748 mmHg 76%
    18:00 -8°C° 0 mm 9 m/S 748 mmHg 78%
    19:00 -8°C° 0 mm 9 m/S 748 mmHg 77%
    20:00 -8°C° 0 mm 9 m/S 747 mmHg 77%
    21:00 -8°C° 0 mm 9 m/S 747 mmHg 77%
    22:00 -8°C° 0 mm 9 m/S 747 mmHg 77%
    23:00 -8°C° 0 mm 9 m/S 746 mmHg 77%

    2 März, Freitag

    Zeit Temperatur Niederschläge Wind Luftdruck Luftfeuchtigkeit
    00:00 -8°C° 0 mm 9 m/S 746 mmHg 77%
    01:00 -8°C° 0 mm 9 m/S 745 mmHg 78%
    02:00 -8°C° 0 mm 9 m/S 745 mmHg 78%
    03:00 -8°C° 0 mm 9 m/S 744 mmHg 79%
    04:00 -8°C° 0 mm 10 m/S 743 mmHg 79%
    05:00 -8°C° 0 mm 10 m/S 743 mmHg 80%
    06:00 -8°C° 0 mm 10 m/S 742 mmHg 80%
    07:00 -8°C° 0,1 mm 10 m/S 742 mmHg 80%
    08:00 -7°C° 0,1 mm 10 m/S 742 mmHg 80%
    09:00 -7°C° 0,1 mm 10 m/S 741 mmHg 80%
    10:00 -7°C° 0,8 mm 10 m/S 741 mmHg 84%
    11:00 -6°C° 0,8 mm 9 m/S 740 mmHg 87%
    12:00 -6°C° 0,8 mm 9 m/S 740 mmHg 91%
    13:00 -6°C° 1,3 mm 8 m/S 740 mmHg 92%
    14:00 -6°C° 1,3 mm 8 m/S 739 mmHg 93%
    15:00 -6°C° 1,3 mm 7 m/S 739 mmHg 94%
    16:00 -4°C° 0,6 mm 7 m/S 738 mmHg 95%
    17:00 -4°C° 0,6 mm 6 m/S 738 mmHg 95%
    18:00 -4°C° 0,6 mm 6 m/S 738 mmHg 96%
    19:00 -2°C° 0,3 mm 5 m/S 738 mmHg 96%
    20:00 -2°C° 0,3 mm 4 m/S 738 mmHg 97%
    21:00 -1°C° 0,3 mm 3 m/S 737 mmHg 98%
    22:00 0°C° 0,2 mm 3 m/S 737 mmHg 98%
    23:00 +1°C° 0,2 mm 2 m/S 737 mmHg 98%
    Mehr zeigen